188P/LINEAR-Mueller (2026)

Japanese version
Home page
Updated on September 27, 2025

---------------------------------------------------------------------

* Profile

* Pictures

* Orbital Elements

Epoch 2025 May 5.0 TT = JDT 2460800.5
T 2026 Apr. 13.23602 TT                                 Pike
q   2.5462198            (2000.0)            P               Q
n   0.10806221     Peri.   26.82402     +0.90063886     -0.43455456
a   4.3653610      Node   358.91484     +0.35868449     +0.74784091
e   0.4167218      Incl.   10.52463     +0.24534683     +0.50189273
P   9.12
From 541 observations 2016 Apr. 14-2025 Aug. 3, mean residual 0".7.

* Magnitudes Graph

        m1 = 7.0 + 5 log d + 20.0 log r(t - 60)

---------------------------------------------------------------------

The orbital elements are published on M.P.E.C. 2025-P113.
The magnitudes graphs are made with Comet for Windows.

---------------------------------------------------------------------

Copyright(C) Seiichi Yoshida (comet@aerith.net). All rights reserved.